Location: Casilda
(33.0440°S, 61.1680°W)
Time: 20:30:55
(UTC-03:00)

ISS - Pass Details

Date: 10 April 2026
Orbit: 416 x 425 km, 51.6° (Epoch: 18 April)

Event Time Altitude Azimuth Distance (km) Brightness Sun altitude
Rises 19:39:19 0° 325° (NW) 2,363 0.6 -11.5°
Reaches altitude 10° 19:41:25 10° 329° (NNW) 1,504 -0.5 -11.9°
Maximum altitude 19:44:44 54° 47° (NE) 522 -3.6 -12.6°
Enters shadow 19:46:49 20° 118° (ESE) 1,035 -2.3 -13.0°
